Japanese version Home page |
Updated on January 28, 2022 |
|
Orbital ElementsEpoch 2022 Jan. 21.0 TT = JDT 2459600.5 T 2022 Jan. 8.75021 TT MPC q 1.1598373 (2000.0) P Q n 0.12926219 Peri. 336.23216 +0.96866077 -0.17718671 a 3.8739592 Node 35.40345 +0.24714204 +0.75761819 e 0.7006067 Incl. 17.48594 -0.02484209 +0.62818751 P 7.62 From 67 observations 1991 Nov. 27-2014 June 15, mean residual 0".8. Nongravitational parameters A1 = -0.38, A2 = -0.0084.
|
Finding Charts
|
Magnitudes Graphm1 = 13 + 5 log d + 40 log r
|
The orbital elements are published on M.P.E.C. 2014-N57.
|